SCP
0 0 0 0 0 0 0 0 0 0 0 0 0 0 0 0 0 0 1 1 2 3 3 3 2 1 1 1 1 1 1 2 2 2 2 2 1 1 1 1 1 1 2
0 0 0 0 0 0 0 0 0 0 0 0 0 0 0 0 0 0 0 1 1 2 3 3 2 1 1 1 2 2 2 2 2 2 2 2 2 1 1 1 1 1 1
0 0 0 0 0 0 0 0 0 0 0 0 0 0 0 0 0 0 0 0 1 1 2 2 1 1 1 1 2 2 2 2 2 2 2 1 1 1 1 1 1 1 1
0 0 0 0 0 0 0 0 0 0 0 0 0 0 0 1 0 0 1 1 1 1 1 1 1 1 1 1 1 1 1 1 1 1 1 1 1 1 1 1 1 1 1
0 0 0 0 0 0 0 0 0 0 0 0 0 0 1 1 1 1 1 1 1 0 0 1 1 1 1 1 1 1 1 1 1 1 1 1 1 1 1 1 1 1 1
0 0 0 0 0 0 0 0 0 0 0 0 0 0 0 1 1 0 0 0 0 0 0 0 0 1 1 1 1 1 1 1 1 1 0 0 0 0 0 1 1 1 1
0 0 0 0 0 0 0 0 0 0 0 0 0 0 0 0 0 0 0 0 0 0 0 0 0 0 0 0 0 0 1 1 1 1 0 0 0 0 0 0 1 1 1
0 0 0 0 0 0 0 0 0 0 0 0 0 0 0 0 0 0 0 0 0 0 0 0 0 0 0 0 0 0 0 0 0 0 0 0 0 0 0 0 0 1 1
0 0 0 0 0 0 0 0 0 0 0 0 0 0 0 0 0 0 0 0 0 0 0 0 0 0 0 0 0 0 0 0 0 0 0 0 0 0 0 0 0 1 1
0 0 0 0 0 0 0 0 0 0 0 0 0 0 0 0 0 0 0 0 0 0 0 0 0 0 0 0 0 0 0 0 0 0 1 0 0 0 1 1 1 1 1
0 0 0 0 0 0 0 0 0 0 0 0 0 0 0 0 0 0 0 0 0 0 0 0 0 0 1 0 0 0 0 0 0 0 0 1 1 1 1 1 1 1 1
0 0 0 0 0 0 0 0 0 0 0 0 0 0 0 0 0 0 0 0 0 0 0 0 0 0 1 1 1 0 0 0 0 0 0 0 1 1 1 1 1 1 1
0 0 0 0 0 0 0 0 0 0 0 0 0 0 0 0 0 0 0 0 0 0 0 0 0 0 1 1 1 0 0 0 0 0 0 0 1 1 1 1 1 1 1
0 0 0 0 0 0 0 0 0 0 0 0 0 0 0 0 0 0 0 0 0 0 0 0 0 0 1 1 1 0 0 0 0 0 0 0 1 1 1 1 1 1 1
0 0 0 0 0 0 0 0 0 0 0 0 0 0 0 0 0 0 0 0 0 0 0 0 0 0 0 0 0 1 1 0 0 0 1 1 1 1 1 1 1 1 1
0 0 0 0 0 0 0 0 0 0 0 0 0 0 0 0 0 0 0 0 0 0 0 0 0 0 0 0 0 0 1 1 1 1 1 1 1 1 1 1 1 1 1
0 0 0 0 0 0 0 0 0 0 0 0 0 0 0 0 0 0 0 0 0 0 0 0 0 0 0 0 0 0 0 1 1 1 1 1 1 1 1 1 1 0 0
0 0 0 0 0 0 0 0 0 0 0 0 0 0 0 0 0 0 0 0 0 0 0 0 0 0 0 0 0 0 0 0 1 1 1 1 1 1 1 1 0 0 0
0 0 0 0 0 0 0 0 0 0 0 0 0 0 0 0 0 0 0 0 0 0 0 0 0 0 0 0 0 0 0 0 1 1 1 1 1 0 0 0 0 0 0
0 0 0 0 0 0 0 0 0 0 0 0 0 0 0 0 0 0 0 0 0 0 0 0 0 0 0 0 0 0 0 0 0 1 1 1 0 0 0 0 0 0 0
0 0 0 0 0 0 0 0 0 0 0 0 0 0 0 0 0 0 0 0 0 0 0 0 0 0 0 0 0 0 0 0 0 1 1 0 0 0 0 0 0 0 0
0 0 0 0 0 0 0 0 0 0 0 0 0 0 0 0 0 0 0 0 0 0 0 0 0 0 0 0 0 0 0 0 0 0 0 0 0 0 0 0 0 0 0
0 0 0 0 0 0 0 0 0 0 0 0 0 0 0 0 0 0 0 0 0 0 0 0 1 0 0 0 0 0 0 0 0 0 0 0 0 0 0 0 0 0 0
0 0 0 0 0 0 0 0 0 0 0 0 0 0 0 0 0 0 0 0 0 0 0 0 0 0 0 0 0 0 0 0 0 0 0 0 0 0 0 0 0 0 0
0 0 0 0 0 0 0 0 0 0 0 0 0 0 0 0 0 0 0 0 1 1 0 0 0 0 0 0 0 0 0 0 0 0 0 0 0 0 0 0 0 0 0
0 0 0 0 0 0 0 0 0 0 0 0 0 0 0 0 0 0 0 0 1 1 1 0 0 0 0 0 0 0 0 0 0 0 0 0 0 0 0 0 0 0 0
Wind_Speed
3 3 3 3 3 3 3 3 4 6 5 6 6 6 6 6 5 5 5 11 12 11 10 9 8 8 7 6 5 6 6 7 7 7 6 7 6 6 5 5 5 5 4
3 2 3 3 3 3 3 3 5 4 4 5 6 6 6 5 5 5 5 7 11 13 12 10 9 9 9 9 8 9 9 9 8 8 8 8 8 7 7 6 5 5 5
2 2 3 3 3 3 4 3 5 3 4 5 6 5 5 6 5 6 5 4 5 10 13 12 12 11 11 11 11 10 10 10 9 9 9 8 8 8 8 7 6 5 4
3 2 2 3 3 3 3 3 3 3 4 4 4 4 4 4 5 5 5 5 5 5 9 12 12 12 12 12 11 11 11 10 10 9 9 9 8 7 7 7 7 6 6
3 3 2 2 3 2 2 3 3 3 4 4 4 3 4 4 4 5 6 6 6 6 5 8 10 12 13 12 12 11 11 11 10 10 9 9 9 8 8 7 7 7 6
3 3 2 2 2 2 2 2 4 3 3 2 3 3 3 3 4 5 5 5 5 7 7 6 5 7 12 13 13 12 11 11 10 10 9 9 9 8 8 7 7 7 6
3 2 1 2 1 2 2 3 3 4 2 1 1 2 3 4 4 4 4 4 5 6 6 6 5 5 5 9 12 12 12 11 10 10 9 9 8 8 7 7 7 7 6
3 2 2 2 2 2 2 2 2 1 2 0 1 1 1 3 3 4 3 3 4 4 5 6 6 6 5 4 8 11 12 11 10 10 9 8 8 8 8 8 7 7 7
3 3 3 2 2 1 2 1 1 1 1 1 1 2 2 2 2 3 4 3 4 4 4 4 5 6 6 5 5 8 11 11 10 10 9 8 7 7 8 8 8 8 7
4 3 3 2 2 2 2 1 1 0 1 0 1 1 3 2 1 2 2 3 4 4 4 4 4 5 5 4 6 9 10 10 11 10 10 8 7 7 7 8 8 8 7
4 3 3 2 2 2 2 1 1 0 1 1 1 1 1 0 2 1 1 2 2 3 3 4 3 3 4 5 5 8 9 10 10 11 11 10 8 7 8 8 8 8 7
3 4 3 2 2 2 2 1 1 1 1 1 1 1 1 1 1 1 0 1 1 2 3 2 2 3 3 3 6 8 8 9 10 11 11 11 9 8 9 9 9 9 8
2 3 2 2 2 2 2 2 1 1 1 1 1 2 2 2 2 1 1 1 1 1 1 1 2 2 2 2 4 4 6 7 8 10 11 11 10 10 10 10 10 10 9
2 3 3 3 3 2 2 2 1 2 1 1 2 1 1 1 1 1 1 1 0 1 1 2 2 2 2 2 4 3 4 7 7 8 9 10 10 10 10 10 11 10 9
2 3 3 3 3 3 2 2 2 2 2 2 2 2 1 1 1 1 1 2 2 1 1 1 1 2 2 2 3 2 3 6 6 6 7 8 9 9 9 9 10 10 9
2 3 3 3 3 3 2 2 2 2 2 3 2 2 2 1 1 1 1 1 2 2 1 2 1 2 2 2 2 3 3 3 4 5 6 7 7 8 8 8 9 9 9
3 3 3 3 3 3 3 3 2 2 2 2 2 2 2 2 1 1 1 1 1 1 1 1 1 1 1 2 2 2 2 2 2 4 5 5 6 6 7 7 7 7 8
3 3 3 3 3 2 2 2 2 2 1 2 2 2 2 2 1 1 1 1 1 1 1 1 0 1 1 2 2 2 2 2 2 4 3 4 4 5 5 5 6 6 6
4 4 3 3 3 2 2 2 2 2 1 1 1 1 1 1 1 1 0 1 0 0 1 1 1 1 1 1 2 2 2 2 2 1 1 1 2 3 4 4 5 6 6
4 4 3 3 3 3 3 2 2 1 1 1 1 1 1 1 1 1 0 1 1 0 0 1 1 1 1 2 2 2 2 2 2 2 2 1 0 1 1 2 4 5 5
4 4 3 3 3 2 2 2 2 2 1 1 1 1 2 3 5 4 2 2 1 1 1 1 1 2 2 2 2 3 3 3 2 2 3 2 2 2 1 1 1 4 5
5 4 4 3 3 2 3 1 1 2 2 1 1 1 1 1 1 1 1 3 4 3 2 2 2 3 3 3 3 4 4 4 3 2 4 3 2 3 2 2 3 3 4
6 5 5 4 4 4 5 4 3 3 2 1 1 1 1 1 1 1 2 3 1 1 4 5 4 4 4 4 4 4 4 5 5 4 4 4 3 3 3 2 2 2 4
6 5 5 5 4 3 5 5 5 4 2 2 2 2 2 1 0 1 1 1 1 1 2 3 4 4 5 5 5 6 6 5 5 3 3 5 4 4 4 3 1 1 4
6 5 5 4 4 4 5 5 5 3 3 3 2 2 3 2 1 1 3 2 2 1 1 0 2 3 4 4 5 4 4 4 5 3 2 4 5 5 5 4 1 2 3
6 5 5 4 4 4 4 5 6 3 3 3 2 2 1 2 1 2 4 3 3 2 2 2 3 4 3 2 4 5 4 5 5 4 2 4 5 5 5 3 3 3 4
Wind_Direction
66 73 78 80 79 86 96 81 76 74 67 63 61 60 56 50 51 54 64 53 41 40 43 50 54 52 43 37 50 56 52 50 48 48 45 43 43 44 44 44 43 37 37
67 66 78 79 77 80 82 87 82 83 77 70 64 59 50 52 51 56 58 69 57 44 42 46 47 48 43 48 58 63 58 56 53 49 46 44 43 44 45 43 39 36 35
66 69 77 86 85 91 96 87 86 81 85 83 73 63 58 47 47 51 50 44 62 63 47 42 46 46 46 50 55 57 55 53 52 49 46 45 46 47 46 41 38 34 31
60 68 78 87 94 96 97 93 96 93 87 79 72 62 63 55 48 48 53 54 44 48 61 48 44 44 46 48 50 51 52 50 48 49 46 44 47 45 43 38 33 31 31
55 80 72 83 103 104 102 103 94 91 89 84 80 69 59 52 45 46 50 47 50 46 51 68 60 50 45 44 46 47 48 46 45 45 43 44 43 41 39 35 32 32 32
50 77 102 100 101 111 104 103 104 94 90 85 79 77 66 64 55 45 42 46 43 46 42 42 59 70 58 47 42 43 44 44 44 41 40 42 38 34 35 34 34 33 32
51 67 92 95 84 100 112 124 117 119 114 107 118 112 107 75 56 58 43 39 53 46 45 48 43 40 69 67 46 38 37 38 40 40 39 39 36 32 31 32 33 30 29
51 59 82 103 104 114 133 139 144 141 125 205 307 293 156 133 88 60 54 41 43 50 42 43 49 48 39 50 58 41 32 30 33 36 36 35 34 31 29 30 31 30 28
56 56 60 70 90 120 125 139 165 182 179 155 352 328 333 47 94 90 55 54 50 44 46 36 39 44 45 45 46 48 30 27 29 31 31 32 36 35 31 29 31 31 30
69 61 67 67 82 80 110 149 146 233 258 234 112 349 354 11 310 113 112 70 55 45 38 38 32 37 42 45 51 42 29 23 24 26 27 29 35 37 33 30 28 28 28
75 74 68 68 76 83 95 90 86 312 284 324 344 6 34 349 299 343 89 89 83 60 44 34 32 32 35 39 36 40 31 25 23 24 25 26 34 37 34 31 29 26 24
93 86 75 72 72 74 80 74 88 99 3 4 338 345 332 341 10 17 102 110 81 69 58 42 27 34 35 41 44 39 36 31 28 26 26 28 35 37 34 31 29 23 30
104 93 89 79 74 72 77 77 90 68 67 20 349 3 2 1 3 343 323 80 102 100 86 83 51 43 39 36 49 25 56 37 29 28 29 31 36 35 31 28 26 25 35
98 101 98 90 84 81 86 81 69 67 58 69 53 44 28 31 22 8 353 320 241 140 113 73 69 51 37 35 36 323 62 48 33 31 32 33 33 32 30 28 26 25 33
109 112 118 113 105 97 83 88 75 80 67 52 59 73 56 67 43 22 344 308 314 311 77 72 56 56 39 41 18 17 39 55 40 33 31 33 33 31 29 27 28 27 30
131 136 133 129 121 112 102 90 85 67 80 73 39 45 49 63 62 44 339 321 323 320 352 56 39 38 25 12 37 3 25 85 63 38 30 30 31 29 26 24 25 26 27
155 155 151 148 135 129 120 110 96 94 80 87 88 69 65 51 56 53 27 8 353 320 313 51 69 45 18 357 12 355 356 353 61 59 30 24 25 25 22 21 21 21 22
165 164 154 154 143 138 132 129 124 118 88 66 64 66 67 82 63 42 23 34 35 345 324 330 339 16 346 350 343 339 352 8 3 70 39 22 22 20 17 17 16 16 13
164 162 158 156 151 152 144 143 141 135 111 80 54 40 46 63 75 78 19 5 2 30 312 285 346 4 310 337 326 332 341 336 330 79 111 41 21 13 13 13 12 12 10
172 168 163 165 165 162 161 158 151 151 129 102 68 35 19 8 349 5 344 341 330 303 280 285 307 307 306 320 307 315 320 328 312 331 347 313 233 241 353 4 8 7 2
178 173 169 170 172 176 177 177 167 170 170 155 135 84 48 35 23 6 350 339 322 294 283 291 301 300 304 310 314 310 308 307 304 318 309 300 296 308 308 278 334 353 350
183 180 184 182 178 172 127 160 239 186 193 196 193 177 134 152 129 133 6 356 348 323 314 299 295 300 312 311 307 298 305 307 309 344 311 308 304 303 309 328 23 1 341
187 190 195 193 196 171 155 172 213 232 222 236 236 229 194 161 228 198 169 188 202 309 305 307 307 312 314 319 306 298 303 305 306 319 307 298 300 299 306 350 38 336 332
188 196 199 200 202 182 169 183 203 224 222 223 236 243 237 238 224 284 262 258 286 290 291 279 301 314 322 320 307 302 301 291 289 288 285 291 305 303 303 298 154 297 308
192 196 198 199 202 193 179 193 214 219 218 222 231 248 255 247 114 254 258 262 268 246 141 229 323 322 343 332 311 293 295 290 293 296 295 294 304 307 294 285 242 211 262
192 195 195 203 206 209 165 190 218 221 223 222 221 222 230 260 164 237 255 263 271 280 280 239 228 230 251 241 258 277 292 293 298 300 331 303 302 309 298 292 305 300 284